STARLINK-11396, 62015

Orbit data source: Space-Track

STARLINK-11396, 62015 is a payload satellite owned by SpaceX/Seattle (US) in LEO that was launched on Mon, 18 Nov 2024 UTC via an FALCON 9 launch vehicle from the Air Force Western Test Range (AFWTR). Payload-class satellites include a variety of spacecraft equipped with specific instruments for various scientific and technological missions. These include communications satellites like Starlink; space stations such as the ISS; scientific satellites like the Hubble; Earth observation satellites from companies like Planet Labs, Umbra, and HawkEye 360; GPS; miniature CubeSats for education and research; and military/defense satellites.

Not visible in the next 10 days
Identifier
62015, 2024-213H
Orbit
LEO
Country
Flag of USUS
Related business
Manufacturer
SpaceX/Seattle
Mission
Operational Commercial Communications
Bus & Motor
STARLINK V2MD, Unknown motor
Mass
960 kg wet, ~910 kg dry
Launch date (UTC)
2024-11-18 (1 year ago)
Launch vehicle
FALCON 9
Launch site
Air Force Western Test Range (AFWTR)
Object type
Payload
Rocket body
Debris
Shape & HBR
Box + 2 Pan, 18.1 m
Radar Cross Section
36.964 m², Large (>1 m²)

Expand to show TLE details & history
Last TLE update: 17 hours ago

TLE from 17 hours ago
0 STARLINK-11396
1 62015U 24213H   25340.83031372  .00096636  00000-0  78997-3 0  9990
2 62015  53.1572 138.7972 0002243 161.2555 198.8546 15.69808069 60337
Epoch: 2025-12-06T19:55Z
TLE epoch observation values (Epoch: 2025-12-06T19:55:39.105Z)
Latitude
-0.00001°
Longitude
124.03183°
Altitude
361.791 km
Speed
7.693 km/s
True Right ascension
09h 15m 11s
True Declination
0° 00' 00"
Sunlit
Object was in full shadow at epoch
Visualization orbit readout
Latitude
Unknown
Longitude
Unknown
Altitude
Unknown
Speed
Unknown
Apparent Right ascension
Unknown
Apparent Declination
Unknown
Sunlit
N/A
Visualization observer readout
Local Sidereal Time
11:27:08
Azimuth
Unknown
Elevation
Unknown
Doppler factor
Unknown
Orbital elements
Apogee altitude
361.219 km
Perigee altitude
358.196 km
Semi-major axis
6,737.844 km
Eccentricity
0.00022
Inclination
53.1572°
RAAN
138.7972°
Arg. of periapsis
161.2555°
True anomaly
198.8463°
Mean anomaly
198.8546°
Eccentric anomaly
198.85045°
Mean motion
3.9243 °/min
Orbital period
91.74 mins
BSTAR
0.00078997
Loading maneuver chart data...
Computing Atmospheric mass density...
Loading historical data...
Loading historical data...
Loading historical data...
Loading historical data...
Loading historical data...
Loading historical data...
Loading historical data...

Documentation

Showing up to 5 results
|